Time,TemperatureF,DewpointF,PressureIn,WindDirection,WindDirectionDegrees,WindSpeedMPH,WindSpeedGustMPH,Humidity,HourlyPrecipIn,Conditions,Clouds,dailyrainin,SolarRadiationWatts/m^2,SoftwareType,DateUTC
2013-06-24 00:37:00,66.0,12.0,-100.00,SW,235,10.0,20.0,12,0.00,,,0.00,0.000000,,2013-06-24 07:37:00,
2013-06-24 00:49:00,66.0,12.0,-100.00,SW,235,10.0,20.0,12,0.00,,,0.00,0.000000,,2013-06-24 07:49:00,
2013-06-24 00:55:00,66.0,12.0,-100.00,SW,235,10.0,20.0,12,0.00,,,0.00,0.000000,,2013-06-24 07:55:00,
2013-06-24 01:00:00,63.0,11.0,-100.00,SW,227,5.0,16.0,13,0.00,,,0.00,0.000000,,2013-06-24 08:00:00,
2013-06-24 01:47:00,63.0,11.0,-100.00,SW,227,5.0,16.0,13,0.00,,,0.00,0.000000,,2013-06-24 08:47:00,
2013-06-24 02:00:00,64.0,15.0,-100.00,WSW,246,5.0,14.0,15,0.00,,,0.00,0.000000,,2013-06-24 09:00:00,
2013-06-24 02:38:00,64.0,15.0,-100.00,WSW,246,5.0,14.0,15,0.00,,,0.00,0.000000,,2013-06-24 09:38:00,
2013-06-24 02:47:00,64.0,15.0,-100.00,WSW,246,5.0,14.0,15,0.00,,,0.00,0.000000,,2013-06-24 09:47:00,
2013-06-24 02:57:00,64.0,15.0,-100.00,WSW,246,5.0,14.0,15,0.00,,,0.00,0.000000,,2013-06-24 09:57:00,
2013-06-24 03:00:00,61.0,18.0,-100.00,SW,236,8.0,14.0,19,0.00,,,0.00,0.000000,,2013-06-24 10:00:00,
2013-06-24 03:38:00,61.0,18.0,-100.00,SW,236,8.0,14.0,19,0.00,,,0.00,0.000000,,2013-06-24 10:38:00,
2013-06-24 03:51:00,61.0,18.0,-100.00,SW,236,8.0,14.0,19,0.00,,,0.00,0.000000,,2013-06-24 10:51:00,
2013-06-24 04:34:00,62.0,24.0,-100.00,SW,226,11.0,19.0,23,0.00,,,0.00,0.000000,,2013-06-24 11:34:00,
2013-06-24 04:56:00,62.0,24.0,-100.00,SW,226,11.0,19.0,23,0.00,,,0.00,0.000000,,2013-06-24 11:56:00,
2013-06-24 05:00:00,60.0,22.0,-100.00,SW,219,7.0,17.0,23,0.00,,,0.00,0.000000,,2013-06-24 12:00:00,
2013-06-24 05:37:00,60.0,22.0,-100.00,SW,219,7.0,17.0,23,0.00,,,0.00,0.000000,,2013-06-24 12:37:00,
2013-06-24 05:49:00,60.0,22.0,-100.00,SW,219,7.0,17.0,23,0.00,,,0.00,0.000000,,2013-06-24 12:49:00,
2013-06-24 06:00:00,58.0,22.0,-100.00,SW,218,8.0,16.0,25,0.00,,,0.00,9.000000,,2013-06-24 13:00:00,
2013-06-24 06:46:00,58.0,22.0,-100.00,SW,218,8.0,16.0,25,0.00,,,0.00,9.000000,,2013-06-24 13:46:00,
2013-06-24 06:57:00,58.0,22.0,-100.00,SW,218,8.0,16.0,25,0.00,,,0.00,9.000000,,2013-06-24 13:57:00,
2013-06-24 07:00:00,61.0,26.0,-100.00,SW,215,11.0,19.0,26,0.00,,,0.00,31.000000,,2013-06-24 14:00:00,
2013-06-24 07:38:00,61.0,26.0,-100.00,SW,215,11.0,19.0,26,0.00,,,0.00,31.000000,,2013-06-24 14:38:00,
2013-06-24 07:45:00,61.0,26.0,-100.00,SW,215,11.0,19.0,26,0.00,,,0.00,31.000000,,2013-06-24 14:45:00,
2013-06-24 07:57:00,61.0,26.0,-100.00,SW,215,11.0,19.0,26,0.00,,,0.00,31.000000,,2013-06-24 14:57:00,
2013-06-24 08:00:00,66.0,26.0,-100.00,SW,217,10.0,23.0,22,0.00,,,0.00,456.000000,,2013-06-24 15:00:00,
2013-06-24 08:37:00,66.0,26.0,-100.00,SW,217,10.0,23.0,22,0.00,,,0.00,456.000000,,2013-06-24 15:37:00,
2013-06-24 08:55:00,66.0,26.0,-100.00,SW,217,10.0,23.0,22,0.00,,,0.00,456.000000,,2013-06-24 15:55:00,
2013-06-24 09:00:00,67.0,23.0,-100.00,SW,220,10.0,26.0,19,0.00,,,0.00,780.000000,,2013-06-24 16:00:00,
2013-06-24 09:25:00,67.0,23.0,-100.00,SW,220,10.0,26.0,19,0.00,,,0.00,780.000000,,2013-06-24 16:25:00,
2013-06-24 09:36:00,67.0,23.0,-100.00,SW,220,10.0,26.0,19,0.00,,,0.00,780.000000,,2013-06-24 16:36:00,
2013-06-24 09:45:00,67.0,23.0,-100.00,SW,220,10.0,26.0,19,0.00,,,0.00,780.000000,,2013-06-24 16:45:00,
2013-06-24 09:55:00,67.0,23.0,-100.00,SW,220,10.0,26.0,19,0.00,,,0.00,780.000000,,2013-06-24 16:55:00,
2013-06-24 10:00:00,69.0,24.0,-100.00,SW,226,10.0,27.0,18,0.00,,,0.00,956.000000,,2013-06-24 17:00:00,
2013-06-24 10:25:00,69.0,24.0,-100.00,SW,226,10.0,27.0,18,0.00,,,0.00,956.000000,,2013-06-24 17:25:00,
2013-06-24 10:36:00,69.0,24.0,-100.00,SW,226,10.0,27.0,18,0.00,,,0.00,956.000000,,2013-06-24 17:36:00,
2013-06-24 10:47:00,69.0,24.0,-100.00,SW,226,10.0,27.0,18,0.00,,,0.00,956.000000,,2013-06-24 17:47:00,
2013-06-24 10:56:00,69.0,24.0,-100.00,SW,226,10.0,27.0,18,0.00,,,0.00,956.000000,,2013-06-24 17:56:00,
2013-06-24 11:00:00,73.0,24.0,-100.00,SW,215,11.0,29.0,16,0.00,,,0.00,999.000000,,2013-06-24 18:00:00,
2013-06-24 11:26:00,73.0,24.0,-100.00,SW,215,11.0,29.0,16,0.00,,,0.00,999.000000,,2013-06-24 18:26:00,
2013-06-24 11:36:00,73.0,24.0,-100.00,SW,215,11.0,29.0,16,0.00,,,0.00,999.000000,,2013-06-24 18:36:00,
2013-06-24 11:55:00,73.0,24.0,-100.00,SW,215,11.0,29.0,16,0.00,,,0.00,999.000000,,2013-06-24 18:55:00,
2013-06-24 12:00:00,76.0,20.0,-100.00,SW,226,13.0,25.0,12,0.00,,,0.00,1194.000000,,2013-06-24 19:00:00,
2013-06-24 12:37:00,76.0,20.0,-100.00,SW,226,13.0,25.0,12,0.00,,,0.00,1194.000000,,2013-06-24 19:37:00,
2013-06-24 12:46:00,76.0,20.0,-100.00,SW,226,13.0,25.0,12,0.00,,,0.00,1194.000000,,2013-06-24 19:46:00,
2013-06-24 12:54:00,76.0,20.0,-100.00,SW,226,13.0,25.0,12,0.00,,,0.00,1194.000000,,2013-06-24 19:54:00,
2013-06-24 13:00:00,77.0,16.0,-100.00,SW,234,11.0,29.0,10,0.00,,,0.00,1318.000000,,2013-06-24 20:00:00,
2013-06-24 13:34:00,77.0,16.0,-100.00,SW,234,11.0,29.0,10,0.00,,,0.00,1318.000000,,2013-06-24 20:34:00,
2013-06-24 13:46:00,77.0,16.0,-100.00,SW,234,11.0,29.0,10,0.00,,,0.00,1318.000000,,2013-06-24 20:46:00,
2013-06-24 13:55:00,77.0,16.0,-100.00,SW,234,11.0,29.0,10,0.00,,,0.00,1318.000000,,2013-06-24 20:55:00,
2013-06-24 14:00:00,78.0,17.0,-100.00,SSW,212,13.0,33.0,10,0.00,,,0.00,881.000000,,2013-06-24 21:00:00,
2013-06-24 14:38:00,78.0,17.0,-100.00,SSW,212,13.0,33.0,10,0.00,,,0.00,881.000000,,2013-06-24 21:38:00,
2013-06-24 14:47:00,78.0,17.0,-100.00,SSW,212,13.0,33.0,10,0.00,,,0.00,881.000000,,2013-06-24 21:47:00,
2013-06-24 14:54:00,78.0,17.0,-100.00,SSW,212,13.0,33.0,10,0.00,,,0.00,881.000000,,2013-06-24 21:54:00,
2013-06-24 15:00:00,77.0,11.0,-100.00,WSW,245,11.0,27.0,8,0.00,,,0.00,870.000000,,2013-06-24 22:00:00,
2013-06-24 15:36:00,77.0,11.0,-100.00,WSW,245,11.0,27.0,8,0.00,,,0.00,870.000000,,2013-06-24 22:36:00,
2013-06-24 15:49:00,77.0,11.0,-100.00,WSW,245,11.0,27.0,8,0.00,,,0.00,870.000000,,2013-06-24 22:49:00,
2013-06-24 15:55:00,77.0,11.0,-100.00,WSW,245,11.0,27.0,8,0.00,,,0.00,870.000000,,2013-06-24 22:55:00,
2013-06-24 16:00:00,74.0,9.0,-100.00,SW,215,14.0,29.0,8,0.00,,,0.00,751.000000,,2013-06-24 23:00:00,
2013-06-24 16:36:00,74.0,9.0,-100.00,SW,215,14.0,29.0,8,0.00,,,0.00,751.000000,,2013-06-24 23:36:00,
2013-06-24 16:45:00,74.0,9.0,-100.00,SW,215,14.0,29.0,8,0.00,,,0.00,751.000000,,2013-06-24 23:45:00,
2013-06-24 16:54:00,74.0,9.0,-100.00,SW,215,14.0,29.0,8,0.00,,,0.00,751.000000,,2013-06-24 23:54:00,
2013-06-24 17:00:00,75.0,12.0,-100.00,WSW,237,13.0,30.0,9,0.00,,,0.00,588.000000,,2013-06-25 00:00:00,
2013-06-24 17:48:00,75.0,12.0,-100.00,WSW,237,13.0,30.0,9,0.00,,,0.00,588.000000,,2013-06-25 00:48:00,
2013-06-24 17:55:00,75.0,12.0,-100.00,WSW,237,13.0,30.0,9,0.00,,,0.00,588.000000,,2013-06-25 00:55:00,
2013-06-24 18:00:00,70.0,6.0,-100.00,SW,236,14.0,32.0,8,0.00,,,0.00,472.000000,,2013-06-25 01:00:00,
2013-06-24 18:45:00,70.0,6.0,-100.00,SW,236,14.0,32.0,8,0.00,,,0.00,472.000000,,2013-06-25 01:45:00,
2013-06-24 18:55:00,70.0,6.0,-100.00,SW,236,14.0,32.0,8,0.00,,,0.00,472.000000,,2013-06-25 01:55:00,
2013-06-24 19:00:00,70.0,0.0,-100.00,SW,227,12.0,26.0,6,0.00,,,0.00,231.000000,,2013-06-25 02:00:00,
2013-06-24 19:37:00,70.0,0.0,-100.00,SW,227,12.0,26.0,6,0.00,,,0.00,231.000000,,2013-06-25 02:37:00,
2013-06-24 19:47:00,70.0,0.0,-100.00,SW,227,12.0,26.0,6,0.00,,,0.00,231.000000,,2013-06-25 02:47:00,
2013-06-24 19:56:00,70.0,0.0,-100.00,SW,227,12.0,26.0,6,0.00,,,0.00,231.000000,,2013-06-25 02:56:00,
2013-06-24 20:00:00,66.0,3.0,-100.00,WSW,252,9.0,23.0,8,0.00,,,0.00,42.000000,,2013-06-25 03:00:00,
2013-06-24 20:46:00,66.0,3.0,-100.00,WSW,252,9.0,23.0,8,0.00,,,0.00,42.000000,,2013-06-25 03:46:00,
2013-06-24 21:00:00,64.0,6.0,-100.00,WSW,242,9.0,23.0,10,0.00,,,0.00,2.000000,,2013-06-25 04:00:00,
2013-06-24 21:34:00,64.0,6.0,-100.00,WSW,242,9.0,23.0,10,0.00,,,0.00,2.000000,,2013-06-25 04:34:00,
2013-06-24 21:43:00,64.0,6.0,-100.00,WSW,242,9.0,23.0,10,0.00,,,0.00,2.000000,,2013-06-25 04:43:00,
2013-06-24 21:52:00,64.0,6.0,-100.00,WSW,242,9.0,23.0,10,0.00,,,0.00,2.000000,,2013-06-25 04:52:00,
2013-06-24 22:00:00,65.0,9.0,-100.00,WSW,237,10.0,23.0,11,0.00,,,0.00,0.000000,,2013-06-25 05:00:00,
2013-06-24 22:32:00,65.0,9.0,-100.00,WSW,237,10.0,23.0,11,0.00,,,0.00,0.000000,,2013-06-25 05:32:00,
2013-06-24 22:44:00,65.0,9.0,-100.00,WSW,237,10.0,23.0,11,0.00,,,0.00,0.000000,,2013-06-25 05:44:00,
2013-06-24 22:52:00,65.0,9.0,-100.00,WSW,237,10.0,23.0,11,0.00,,,0.00,0.000000,,2013-06-25 05:52:00,
2013-06-24 23:00:00,63.0,10.0,-100.00,WSW,239,9.0,17.0,12,0.00,,,0.00,0.000000,,2013-06-25 06:00:00,
2013-06-24 23:34:00,63.0,10.0,-100.00,WSW,239,9.0,17.0,12,0.00,,,0.00,0.000000,,2013-06-25 06:34:00,
2013-06-24 23:43:00,63.0,10.0,-100.00,WSW,239,9.0,17.0,12,0.00,,,0.00,0.000000,,2013-06-25 06:43:00,
2013-06-24 23:52:00,63.0,10.0,-100.00,WSW,239,9.0,17.0,12,0.00,,,0.00,0.000000,,2013-06-25 06:52:00,